Regional Weather Roundup
Issued by NWS Mt. Holly, NJ

Home | Current Version | Previous Version | Text Only | Print | Product List | Glossary On
Versions: 1 2 3 4 5 6 7 8 9 10 11 12 13 14 15 16 17 18 19 20 21 22 23 24 25 26 27 28 29 30 31 32 33 34 35 36 37 38 39 40 41 42 43 44 45 46 47 48 49 50
000
ASUS41 KPHI 240812
RWRPHI

REGIONAL WEATHER ROUNDUP
NATIONAL WEATHER SERVICE MOUNT HOLLY NJ
300 AM EST TUE JAN 24 2017

NOTE:  "FAIR" INDICATES FEW OR NO CLOUDS BELOW 12,000 FEET WITH NO
SIGNIFICANT WEATHER AND/OR OBSTRUCTIONS TO VISIBILITY.

 * = STATION DOES NOT REPORT PRECIPITATION (E.G. RAIN, SNOW, ETC.)
        OR FOG.

NJZ015>026-240900-
SOUTHERN NEW JERSEY

CITY           SKY/WX    TMP DP  RH WIND       PRES   REMARKS
POMONA         LGT RAIN  40  38  93 N15       29.30F FOG     WCI  32
WILDWOOD*      CLOUDY    40  39  97 N9        29.31S WCI  34
MILLVILLE      CLOUDY    39  38  96 N12       29.34S WCI  32
WRIGHTSTOWN    LGT RAIN  38  36  92 N15G22    29.32S FOG     WCI  29
MOUNT HOLLY    LGT SNOW  37  36  96 N10       29.37S FOG     WCI  30
TRENTON        LGT RAIN  38  36  92 N10       29.38R FOG     WCI  31

$$
NJZ001>014-240900-
NORTHERN NEW JERSEY

CITY           SKY/WX    TMP DP  RH WIND       PRES   REMARKS
SUSSEX         LGT RAIN  33  31  92 NE15G22   29.42S FOG     WCI  23
ANDOVER*         N/A     32  30  92 VRB7G17   29.41S WCI  26
MORRISTOWN     RAIN      36  36 100 NE15      29.39F WCI  26
NEWARK         LGT RAIN  38  35  89 N20       29.37S WCI  28
TETERBORO      RAIN      38  35  89 N14G21    29.37S FOG     WCI  30
CALDWELL       LGT RAIN  37  34  89 NE13G26   29.39F WCI  29
SOMERVILLE     LGT RAIN  38  34  85 NE10G16   29.38S WCI  31
ALLAIRE*       LGT RAIN  38  37  97 N17       29.32F FOG     WCI  28
TOMS RIVER*    LGT RAIN  39  38  96 N15G25    29.32S FOG     WCI  31

$$
PAZ043-044-047-054-055-060>062-066>071-240900-
EASTERN PENNSYLVANIA

CITY           SKY/WX    TMP DP  RH WIND       PRES   REMARKS
PHILADELPHIA   LGT RAIN  38  36  92 N17       29.40S FOG     WCI  28
NORTH PHILA    LGT RAIN  39  37  92 N13       29.40S FOG     WCI  31
BLUE BELL*     CLOUDY    36  36 100 N3        29.40S
DOYLESTOWN     LGT RAIN  38  37  97 N8        29.40S FOG     WCI  32
QUAKERTOWN*    CLOUDY    34  32  93 N13       29.43F WCI  25
PERKASIE*      LGT RAIN  34  34 100 N8        29.42F WCI  27
POTTSTOWN      LGT RAIN  35  33  92 N8        29.44F WCI  29
LANCASTER      LGT RAIN  38  36  92 N9        29.47R WCI  31
COATESVILLE    CLOUDY    36  34  93 N12       29.42F WCI  27
READING        LGT RAIN  37  37 100 N9        29.45S WCI  30
ALLENTOWN      RAIN      37  33  85 N10       29.45R FOG     WCI  30
MOUNT POCONO   MIX PCPN  31  28  89 N8G20     29.40F FOG     WCI  23
HAZLETON       LGT SNOW  32  32 100 N5        29.48S WCI  27
LEHIGHTON      RAIN      34  34 100 CALM      29.48R
WILKES BARRE   RAIN      34  33  96 E3        29.48S FOG

$$
DEZALL-MDZ008-012-015-019-020-240900-
DELAWARE AND EASTERN MARYLAND

CITY           SKY/WX    TMP DP  RH WIND       PRES   REMARKS
WILMINGTON     CLOUDY    39  36  89 N14       29.41S WCI  31
DOVER          CLOUDY    39  39 100 NW16      29.36R WCI  30
GEORGETOWN     CLOUDY    41  37  86 N12G21    29.35R
EASTON         CLOUDY    40  37  91 N12       29.44R FOG     WCI  32
ABERDEEN       CLOUDY    38  36  91 N9        29.44S WCI  31
PATUXENT       CLOUDY    39  37  92 N18       29.41R WCI  30
OCEAN CITY     CLOUDY    41  40  96 NW14      29.31R FOG
WALLOPS ISLAND LGT RAIN  41  41 100 NW12G22   29.33R FOG
CAMBRIDGE      CLOUDY    37  36  93 N13       29.39S WCI  29
SALISBURY      LGT RAIN  40  39  97 N14       29.34R FOG     WCI  32

$$
PAZ001-021-NYZ056-072-MDZ011-DCZ001-240900-
OTHER NEARBY LOCATIONS

CITY           SKY/WX    TMP DP  RH WIND       PRES   REMARKS
HARRISBURG     LGT SNOW  36  35  96 NW10      29.50R FOG     WCI  28
STATE COLLEGE  LGT SNOW  32  32 100 CALM      29.54S
WILLIAMSPORT   LGT SNOW  33  32  96 W8        29.54F FOG     WCI  26
BINGHAMTON     LGT SNOW  31  30  96 N13       29.51F FOG     WCI  21
NEW YORK CITY  MIX PCPN  37  35  92 NE14G36   29.38F WCI  28
BALTIMORE      LGT RAIN  37  37 100 NW8       29.45R WCI  31
WASHINGTON DC  CLOUDY    39  37  92 NW14      29.47S WCI  31

$$



USA.gov is the U.S. government's official web portal to all federal, state and local government web resources and services.